Location: Fisher's Paradise
(46.5411°N, 80.0984°W)
Time: 00:21:27
(UTC-04:00)

Tiangong 2 - Pass Details

Date: 23 March 2019
Orbit: 378 x 389 km, 42.8° (Epoch: 19 April)

Event Time Altitude Azimuth Distance (km) Brightness Sun altitude
Exits shadow 05:56:01 12° 189° (S) 1,290 3.5 -14.7°
Drops below altitude 10° 05:56:38 10° 178° (S) 1,395 3.7 -14.6°
Sets 05:59:30 0° 149° (SSE) 2,248 5.1 -14.1°
